AO-92

导读

AO-92(又称Fox-1D)是美国于2018年1月12日发射的业余无线电卫星,截至2021年仍处于在轨工作状态。卫星运行在近地轨道,近地点约495.3公里、远地点约505.5公里,轨道倾角97.4°,每94.5分钟绕地球一圈。它支持FM模式,上行频率435.350MHz - 1267.350MHz,下行与信标频率均为145.880MHz,为全球业余无线电爱好者提供双向通信服务,推动了业余航天领域的实践交流。

基本信息
目录编号:
43137
目录名称:
AO-92
国际标识:
2018-004AC
轨道中心:
EARTH
卫星名称:
AO-92
卫星全名:
--
卫星状态:
已陨落 最后检测时间 2024-02-07
发射日期:
2018-01-12 UTC
国别 :
美国 (US)
星等 :
--
轨道信息
数据来源 国际轨道数据
星历时间: 2024-02-03T11:47:56+0800
轨道信息已过期892天
半长轴: 6526.705km
偏心率: 0.0011105
轨道倾角: 97.273°
近地点辐角 309.190°
升交点赤经 126.275°
平近点角 50.841°
近地点: 141.322km
远地点: 155.818km
周期: 87.458分钟
每日圈数: 16.465005
详细信息
使用方式:
暂无